EN

Hourly Weather Azamgarh

Today, 28 November, Saturday

Time Temperature Precipitation Wind Pressure Humidity
00:00 +22°C° 0 mm 1 mps 756 mmHg 41%
01:00 +21°C° 0 mm 1 mps 756 mmHg 41%
02:00 +21°C° 0 mm 1 mps 755 mmHg 41%
03:00 +19°C° 0 mm 2 mps 755 mmHg 41%
04:00 +19°C° 0 mm 2 mps 755 mmHg 42%
05:00 +18°C° 0 mm 2 mps 755 mmHg 43%
06:00 +18°C° 0 mm 2 mps 755 mmHg 46%
07:00 +19°C° 0 mm 2 mps 755 mmHg 43%
08:00 +20°C° 0 mm 2 mps 756 mmHg 41%
09:00 +22°C° 0 mm 3 mps 756 mmHg 39%
10:00 +25°C° 0 mm 3 mps 756 mmHg 34%
11:00 +27°C° 0 mm 3 mps 756 mmHg 29%
12:00 +29°C° 0 mm 3 mps 756 mmHg 24%
13:00 +30°C° 0 mm 3 mps 755 mmHg 23%
14:00 +30°C° 0 mm 4 mps 754 mmHg 22%
15:00 +32°C° 0 mm 4 mps 754 mmHg 21%
16:00 +29°C° 0 mm 3 mps 753 mmHg 24%
17:00 +27°C° 0 mm 3 mps 753 mmHg 27%
18:00 +25°C° 0 mm 2 mps 753 mmHg 30%
19:00 +24°C° 0 mm 2 mps 753 mmHg 32%
20:00 +23°C° 0 mm 2 mps 754 mmHg 33%
21:00 +21°C° 0 mm 2 mps 754 mmHg 34%
22:00 +21°C° 0 mm 2 mps 754 mmHg 35%
23:00 +20°C° 0 mm 2 mps 754 mmHg 36%

Tomorrow, 29 November, Sunday

Time Temperature Precipitation Wind Pressure Humidity
00:00 +20°C° 0 mm 2 mps 754 mmHg 36%
01:00 +19°C° 0 mm 2 mps 754 mmHg 37%
02:00 +19°C° 0 mm 2 mps 754 mmHg 38%
03:00 +18°C° 0 mm 2 mps 754 mmHg 39%
04:00 +18°C° 0 mm 2 mps 754 mmHg 40%
05:00 +17°C° 0 mm 2 mps 754 mmHg 41%
06:00 +17°C° 0 mm 2 mps 755 mmHg 41%
07:00 +18°C° 0 mm 2 mps 755 mmHg 39%
08:00 +21°C° 0 mm 1 mps 756 mmHg 37%
09:00 +22°C° 0 mm 1 mps 757 mmHg 35%
10:00 +24°C° 0 mm 2 mps 757 mmHg 32%
11:00 +26°C° 0 mm 2 mps 756 mmHg 29%
12:00 +27°C° 0 mm 2 mps 756 mmHg 26%
13:00 +28°C° 0 mm 2 mps 755 mmHg 24%
14:00 +29°C° 0 mm 2 mps 754 mmHg 23%
15:00 +29°C° 0 mm 2 mps 753 mmHg 21%
16:00 +28°C° 0 mm 2 mps 753 mmHg 24%
17:00 +26°C° 0 mm 2 mps 753 mmHg 27%
18:00 +24°C° 0 mm 1 mps 753 mmHg 30%
19:00 +23°C° 0 mm 1 mps 753 mmHg 32%
20:00 +23°C° 0 mm 2 mps 754 mmHg 33%
21:00 +21°C° 0 mm 2 mps 754 mmHg 34%
22:00 +21°C° 0 mm 1 mps 754 mmHg 36%
23:00 +21°C° 0 mm 1 mps 754 mmHg 37%

Day after tomorrow, 30 November, Monday

Time Temperature Precipitation Wind Pressure Humidity
00:00 +20°C° 0 mm 1 mps 754 mmHg 38%
01:00 +20°C° 0 mm 1 mps 754 mmHg 39%
02:00 +19°C° 0 mm 1 mps 753 mmHg 40%
03:00 +19°C° 0 mm 1 mps 753 mmHg 41%
04:00 +18°C° 0 mm 1 mps 753 mmHg 42%
05:00 +18°C° 0 mm 1 mps 753 mmHg 43%
06:00 +16°C° 0 mm 1 mps 753 mmHg 44%
07:00 +19°C° 0 mm 1 mps 754 mmHg 41%
08:00 +20°C° 0 mm 1 mps 755 mmHg 38%
09:00 +22°C° 0 mm 1 mps 756 mmHg 36%
10:00 +23°C° 0 mm 1 mps 756 mmHg 32%
11:00 +25°C° 0 mm 1 mps 755 mmHg 28%
12:00 +27°C° 0 mm 2 mps 755 mmHg 25%
13:00 +28°C° 0 mm 2 mps 755 mmHg 23%
14:00 +28°C° 0 mm 2 mps 754 mmHg 22%
15:00 +29°C° 0 mm 2 mps 753 mmHg 20%
16:00 +27°C° 0 mm 1 mps 753 mmHg 23%
17:00 +26°C° 0 mm 1 mps 753 mmHg 26%
18:00 +24°C° 0 mm 1 mps 753 mmHg 28%
19:00 +23°C° 0 mm 1 mps 753 mmHg 29%
20:00 +23°C° 0 mm 1 mps 754 mmHg 31%
21:00 +22°C° 0 mm 1 mps 754 mmHg 32%
22:00 +21°C° 0 mm 1 mps 754 mmHg 33%
23:00 +21°C° 0 mm 1 mps 754 mmHg 34%

1 December, Tuesday

Time Temperature Precipitation Wind Pressure Humidity
00:00 +20°C° 0 mm 1 mps 754 mmHg 34%
01:00 +20°C° 0 mm 1 mps 754 mmHg 36%
02:00 +20°C° 0 mm 1 mps 754 mmHg 37%
03:00 +19°C° 0 mm 1 mps 754 mmHg 38%
04:00 +19°C° 0 mm 1 mps 754 mmHg 39%
05:00 +16°C° 0 mm 0 mps 754 mmHg 40%
06:00 +16°C° 0 mm 0 mps 754 mmHg 41%
07:00 +17°C° 0 mm 0 mps 755 mmHg 39%
08:00 +19°C° 0 mm 0 mps 755 mmHg 36%
09:00 +20°C° 0 mm 0 mps 756 mmHg 34%
10:00 +22°C° 0 mm 0 mps 756 mmHg 31%
11:00 +24°C° 0 mm 0 mps 756 mmHg 28%
12:00 +26°C° 0 mm 0 mps 755 mmHg 24%
13:00 +26°C° 0 mm 0 mps 755 mmHg 23%
14:00 +27°C° 0 mm 0 mps 754 mmHg 22%
15:00 +29°C° 0 mm 1 mps 753 mmHg 21%
16:00 +28°C° 0 mm 1 mps 753 mmHg 23%
17:00 +26°C° 0 mm 1 mps 753 mmHg 26%
18:00 +24°C° 0 mm 1 mps 753 mmHg 28%
19:00 +24°C° 0 mm 1 mps 753 mmHg 29%
20:00 +23°C° 0 mm 1 mps 754 mmHg 30%
21:00 +23°C° 0 mm 1 mps 754 mmHg 31%
22:00 +22°C° 0 mm 1 mps 754 mmHg 32%
23:00 +22°C° 0 mm 1 mps 754 mmHg 33%

2 December, Wednesday

Time Temperature Precipitation Wind Pressure Humidity
00:00 +21°C° 0 mm 1 mps 754 mmHg 34%
01:00 +21°C° 0 mm 1 mps 753 mmHg 34%
02:00 +20°C° 0 mm 1 mps 753 mmHg 35%
03:00 +20°C° 0 mm 1 mps 753 mmHg 36%
04:00 +19°C° 0 mm 1 mps 753 mmHg 37%
05:00 +19°C° 0 mm 1 mps 753 mmHg 38%
06:00 +18°C° 0 mm 1 mps 753 mmHg 39%
07:00 +19°C° 0 mm 1 mps 753 mmHg 37%
08:00 +21°C° 0 mm 1 mps 754 mmHg 35%
09:00 +22°C° 0 mm 1 mps 755 mmHg 33%
10:00 +24°C° 0 mm 1 mps 755 mmHg 30%
11:00 +26°C° 0 mm 2 mps 754 mmHg 27%
12:00 +27°C° 0 mm 2 mps 754 mmHg 23%
13:00 +28°C° 0 mm 2 mps 754 mmHg 22%
14:00 +29°C° 0 mm 2 mps 753 mmHg 21%
15:00 +29°C° 0 mm 2 mps 752 mmHg 20%
16:00 +28°C° 0 mm 2 mps 752 mmHg 23%
17:00 +26°C° 0 mm 2 mps 751 mmHg 26%
18:00 +24°C° 0 mm 1 mps 751 mmHg 29%
19:00 +23°C° 0 mm 1 mps 752 mmHg 30%
20:00 +23°C° 0 mm 1 mps 752 mmHg 31%
21:00 +22°C° 0 mm 1 mps 752 mmHg 33%
22:00 +21°C° 0 mm 1 mps 752 mmHg 34%
23:00 +21°C° 0 mm 1 mps 752 mmHg 35%

3 December, Thursday

Time Temperature Precipitation Wind Pressure Humidity
00:00 +20°C° 0 mm 1 mps 752 mmHg 36%
01:00 +20°C° 0 mm 1 mps 752 mmHg 36%
02:00 +19°C° 0 mm 1 mps 751 mmHg 37%
03:00 +19°C° 0 mm 1 mps 751 mmHg 38%
04:00 +18°C° 0 mm 1 mps 751 mmHg 38%
05:00 +18°C° 0 mm 1 mps 751 mmHg 39%
06:00 +18°C° 0 mm 1 mps 751 mmHg 39%
07:00 +19°C° 0 mm 1 mps 752 mmHg 37%
08:00 +20°C° 0 mm 1 mps 753 mmHg 35%
09:00 +22°C° 0 mm 1 mps 754 mmHg 33%
10:00 +24°C° 0 mm 1 mps 754 mmHg 30%
11:00 +26°C° 0 mm 1 mps 754 mmHg 26%
12:00 +28°C° 0 mm 1 mps 754 mmHg 23%
13:00 +28°C° 0 mm 1 mps 753 mmHg 22%
14:00 +29°C° 0 mm 1 mps 752 mmHg 20%
15:00 +29°C° 0 mm 2 mps 752 mmHg 19%
16:00 +27°C° 0 mm 1 mps 752 mmHg 22%
17:00 +26°C° 0 mm 1 mps 752 mmHg 24%
18:00 +24°C° 0 mm 1 mps 752 mmHg 27%
19:00 +23°C° 0 mm 1 mps 752 mmHg 28%
20:00 +23°C° 0 mm 1 mps 752 mmHg 29%
21:00 +22°C° 0 mm 1 mps 753 mmHg 30%
22:00 +20°C° 0 mm 0 mps 753 mmHg 31%
23:00 +19°C° 0 mm 0 mps 753 mmHg 32%
Show more